Location: Asheville, NC
(35.6000°N, 82.5500°W)
Time: 01:32:21
(UTC-04:00)

Vanguard 2 - Pass Details

Date: 07 December 2017
Orbit: 553 x 2939 km, 32.9° (Epoch: 25 April)

Event Time Altitude Azimuth Distance (km) Brightness Sun altitude
Rises 00:41:24 0° 261° (W) 3,280 - -76.3°
Reaches altitude 10° 00:44:40 10° 237° (WSW) 2,654 - -76.1°
Maximum altitude 00:48:13 15° 203° (SSW) 2,634 - -75.8°
Drops below altitude 10° 00:52:41 10° 171° (S) 3,482 - -75.4°
Sets 00:58:10 0° 152° (SSE) 5,026 - -74.8°
